Location: Poughquag
(41.6090°N, 73.6820°W)
Time: 16:03:46
(UTC-04:00)

Tiangong 1 - Visible Passes

Search period start: 23 March 2017 00:00
Search period end: 02 April 2017 00:00
Orbit: 334 x 358 km, 42.8° (Epoch: 22 March)

Date Brightness Start Highest point End Pass type
(mag) Time Alt. Az. Time Alt. Az. Time Alt. Az.
23 Mar 0.8 20:13:03 10° W 20:15:59 75° SSW 20:17:21 28° ESE visible
24 Mar 1.9 20:37:05 10° W 20:39:49 35° SSW 20:40:15 33° S visible
25 Mar 3.4 21:01:35 10° WSW 21:03:11 15° SW 21:03:11 15° SW visible
26 Mar 2.3 19:48:58 10° W 19:51:39 32° SSW 19:54:18 10° SE visible
27 Mar 3.6 20:13:34 10° WSW 20:15:11 14° SSW 20:16:47 10° S visible
